Погода в Чадыр-Лунге

Молдова     46°03′08″N   28°50′02″E
темп.,
°C
ветер,
м/с
пор.,
м/с
влажн.,
%
обл.,
%
осадки,
мм/ч
давл.,
гПа
погр.,
м
25 мая, ср
ср2500:00+12ю377863 0.0 1016142
03:00+13ю3676100 0.0 1017149
06:00+14ю2469100 0.0 1017133
09:00+19ю46465 0.0 1018707
12:00+23ю773311 0.0 10181752
15:00+24ю87315 0.0 10172006
18:00+22ю993510 0.0 10171286
21:00+17ююв8134773 0.1 1018510
26 мая, чт
чт2600:00+14ю61471100 0.4 1018396
03:00+13ю71475100 0.4 1017378
06:00+13ю41184100 1.4 1016361
09:00+16ююз677299 2.3 1016395
12:00+22сз5658100 0.0 10171271
15:00+21ссз785937 0.1 10181222
18:00+21с66550 0.0 1018864
21:00+16с22672 0.0 102011
27 мая, пт
пт2700:00+17зсз1163100 0.0 102111
03:00+17юз116097 0.0 102011
06:00+16зюз226258 0.0 102027
09:00+21юз34451 0.0 1020545
12:00+25ююз55341 0.0 10192020
15:00+27ююз553237 0.0 10172599
18:00+27юз573025 0.0 10142601
21:00+19ю8146414 0.0 1014336
28 мая, сб
сб2800:00+18ююз614765 0.0 1014355
03:00+16юз38850 0.0 1014163
06:00+17сз35780 0.0 1014119
09:00+21ссв33605 0.0 1014560
12:00+25зсз11467 0.0 10121337
15:00+28юз453699 0.1 10102759
18:00+17ссз91291100 10.4 1012621
21:00+15св61189100 28.2 1015432
29 мая, вс
вс2900:00+15ссв4888100 0.6 1016515
03:00+13ссв4893100 0.6 1017415
06:00+12ссв489498 0.0 1018434
09:00+16св576386 0.0 1019755
12:00+18всв4448100 0.0 10181198
15:00+20в444596 0.0 10171332
18:00+21вюв234771 0.0 10161348
21:00+16юв466696 0.0 1017112